Find Turksat 4B

NORAD ID: 40984 Int'l Des: 2015-060 Owner: TURKS Country: TR operational
HEOCIRCULARGSOGEO

当前视图

正在加载3D地球...

About Turksat 4B

Turksat 4B (NORAD 40984) is a satellite launched Oct 16, 2015 by TURKS of TR. It operates in HEO, CIRCULAR, GSO, GEO orbit with a mass of 4928.00 kg.

即将过境

Passes for default location (London). Set your location on the main map for personalized predictions.

高度历史

Loading altitude history...

两行轨道根数

1 40984U 15060A 26194.85609553 .00000110 00000-0 00000+0 0 9991
2 40984 0.0159 47.4889 0002357 72.5536 169.8381 1.00271988 39360
Epoch: Jul 13, 2026 • Age: 9 hours

当前状态

高度 35780.8 km
远地点 / 近地点 N/A
速度 3.08 km/s
星下点 0.01°N, 49.95°E
发射日期 Oct 16, 2015
运行时间 10.7 years
类型 other

技术详情

分类 Payload
质量 4928.00 kg
干质量 2500.00 kg
总质量 4928.00 kg
长度 6.20 m
直径 3.80 m
跨度 25.30 m
形状 Box + 2 pan
制造商 MELCO
平台类型 DS-2000
阶段状态 In Orbit
所有者/国家 TURKS/TR

Most Searched